Weather History for Sterling, IL

Change the Weather History Date:

Thursday, September 12, 2013

  Actual Average Record
Temperature  
Mean Temperature 71 °F -  
Max Temperature 82 °F 75 °F 91 °F (2005)
Min Temperature 60 °F 51 °F 41 °F (2007)
Cooling Degree Days 6    
Growing Degree Days 21 (Base 50)    
Moisture  
Dew Point 55 °F    
Average Humidity 62    
Maximum Humidity 94    
Minimum Humidity 32    
Precipitation  
Precipitation 0.00 in - - ()
Sea Level Pressure  
Sea Level Pressure 30.05 in    
Wind  
Wind Speed 8 mph (NW)    
Max Wind Speed 20 mph    
Max Gust Speed 29 mph    
Visibility 10 miles    
Events      
Averages and records for this station are not official NWS values.
T = Trace of Precipitation, MM = Missing Value Source: NWS Daily Summary

Daily Weather History Graph

Daily Weather History Graph

Search for Another Location

Airport:

Trip Planner

Search our weather history database for the weather conditions in past years. The results will help you decide how hot, cold, wet, or windy it might be!

Date:

Astronomy

Sep. 12, 2013 Rise Set
Actual Time 6:36 AM CDT 7:12 PM CDT
Civil Twilight 6:08 AM CDT 7:40 PM CDT
Nautical Twilight 5:34 AM CDT 8:13 PM CDT
Astronomical Twilight 5:00 AM CDT 8:47 PM CDT
Moon 2:09 PM CDT (9/12) No Moon Set
Length of Visible Light 13h 32m
Length of Day
12h 36m
Waxing Crescent, 50% of the Moon is Illuminated
Sep 12
Waxing Crescent
Sep 12
First Quarter
Sep 19
Full
Sep 26
Last Quarter
Oct 4
New

Hourly Weather History & Observations

Time (CDT) Temp. Heat Index Dew Point Humidity Pressure Visibility Wind Dir Wind Speed Gust Speed Precip Events Conditions
12:15 AM 69.8 °F - 64.4 °F 83% 30.02 in 10.0 mi West 4.6 mph - N/A   Clear
12:35 AM 66.2 °F - 64.4 °F 94% 30.01 in 10.0 mi West 6.9 mph - N/A   Clear
12:55 AM 68.0 °F - 66.2 °F 94% 30.02 in 10.0 mi West 5.8 mph - N/A   Clear
1:15 AM 66.2 °F - 64.4 °F 94% 30.01 in 10.0 mi West 5.8 mph - N/A   Clear
1:35 AM 68.0 °F - 64.4 °F 88% 30.02 in 10.0 mi West 6.9 mph - N/A   Clear
1:55 AM 66.2 °F - 62.6 °F 88% 30.02 in 10.0 mi WNW 6.9 mph - N/A   Clear
2:15 AM 66.2 °F - 62.6 °F 88% 30.01 in 10.0 mi WNW 6.9 mph - N/A   Clear
2:35 AM 66.2 °F - 62.6 °F 88% 30.02 in 10.0 mi WNW 4.6 mph - N/A   Clear
2:55 AM 64.4 °F - 62.6 °F 94% 30.02 in 10.0 mi WNW 5.8 mph - N/A   Clear
3:15 AM 64.4 °F - 62.6 °F 94% 30.02 in 10.0 mi West 5.8 mph - N/A   Clear
3:35 AM 64.4 °F - 60.8 °F 88% 30.02 in 10.0 mi WNW 4.6 mph - N/A   Clear
3:55 AM 64.4 °F - 60.8 °F 88% 30.02 in 10.0 mi WNW 4.6 mph - N/A   Clear
4:15 AM 64.4 °F - 60.8 °F 88% 30.03 in 10.0 mi West 4.6 mph - N/A   Clear
4:35 AM 62.6 °F - 60.8 °F 94% 30.03 in 10.0 mi West 4.6 mph - N/A   Clear
4:55 AM 62.6 °F - 60.8 °F 94% 30.03 in 10.0 mi West 4.6 mph - N/A   Clear
5:15 AM 62.6 °F - 60.8 °F 94% 30.03 in 10.0 mi West 4.6 mph - N/A   Clear
5:35 AM 62.6 °F - 60.8 °F 94% 30.03 in 10.0 mi West 4.6 mph - N/A   Clear
5:55 AM 62.6 °F - 60.8 °F 94% 30.03 in 10.0 mi West 4.6 mph - N/A   Clear
6:15 AM 62.6 °F - 60.8 °F 94% 30.03 in 10.0 mi West 4.6 mph - N/A   Clear
6:35 AM 62.6 °F - 60.8 °F 94% 30.03 in 10.0 mi West 3.5 mph - N/A   Clear
6:55 AM 62.6 °F - 59.0 °F 88% 30.03 in 10.0 mi West 4.6 mph - N/A   Clear
7:15 AM 62.6 °F - 59.0 °F 88% 30.03 in 10.0 mi West 3.5 mph - N/A   Clear
7:35 AM 62.6 °F - 60.8 °F 94% 30.04 in 10.0 mi West 4.6 mph - N/A   Clear
7:55 AM 64.4 °F - 60.8 °F 88% 30.04 in 10.0 mi WNW 8.1 mph - N/A   Clear
8:15 AM 66.2 °F - 62.6 °F 88% 30.04 in 10.0 mi WNW 4.6 mph - N/A   Clear
8:35 AM 69.8 °F - 62.6 °F 78% 30.03 in 10.0 mi WNW 4.6 mph - N/A   Clear
8:55 AM 71.6 °F - 62.6 °F 73% 30.04 in 10.0 mi NW 9.2 mph - N/A   Clear
9:15 AM 73.4 °F - 60.8 °F 65% 30.04 in 10.0 mi NW 11.5 mph - N/A   Clear
9:35 AM 73.4 °F - 60.8 °F 65% 30.04 in 10.0 mi North 10.4 mph - N/A   Clear
9:55 AM 75.2 °F - 59.0 °F 57% 30.05 in 10.0 mi NNW 10.4 mph - N/A   Clear
10:15 AM 75.2 °F - 57.2 °F 53% 30.05 in 10.0 mi NNW 11.5 mph - N/A   Clear
10:35 AM 77.0 °F - 57.2 °F 50% 30.05 in 10.0 mi North 13.8 mph 19.6 mph N/A   Clear
10:55 AM 78.8 °F - 55.4 °F 44% 30.04 in 10.0 mi NNW 10.4 mph 16.1 mph N/A   Clear
11:15 AM 78.8 °F - 55.4 °F 44% 30.04 in 10.0 mi NNW 12.7 mph 17.3 mph N/A   Clear
11:35 AM 80.6 °F 80.3 °F 53.6 °F 39% 30.05 in 10.0 mi NNW 12.7 mph 18.4 mph N/A   Clear
11:55 AM 80.6 °F 80.3 °F 53.6 °F 39% 30.05 in 10.0 mi NW 15.0 mph 21.9 mph N/A   Clear
12:15 PM 80.6 °F - 51.8 °F 37% 30.04 in 10.0 mi NNW 17.3 mph 24.2 mph N/A   Clear
12:35 PM 80.6 °F - 51.8 °F 37% 30.04 in 10.0 mi NNW 15.0 mph 20.7 mph N/A   Clear
12:55 PM 80.6 °F - 51.8 °F 37% 30.04 in 10.0 mi NW 16.1 mph 26.5 mph N/A   Clear
1:15 PM 80.6 °F - 51.8 °F 37% 30.04 in 10.0 mi North 18.4 mph 26.5 mph N/A   Clear
1:35 PM 82.4 °F - 51.8 °F 35% 30.03 in 10.0 mi North 15.0 mph 24.2 mph N/A   Clear
1:55 PM 82.4 °F - 51.8 °F 35% 30.03 in 10.0 mi NNW 13.8 mph 24.2 mph N/A   Clear
2:15 PM 80.6 °F - 51.8 °F 37% 30.03 in 10.0 mi North 17.3 mph 23.0 mph N/A   Clear
2:35 PM 82.4 °F - 50.0 °F 32% 30.03 in 10.0 mi North 17.3 mph 21.9 mph N/A   Clear
2:55 PM 80.6 °F - 50.0 °F 34% 30.03 in 10.0 mi NW 16.1 mph 28.8 mph N/A   Clear
3:15 PM 80.6 °F - 50.0 °F 34% 30.03 in 10.0 mi North 15.0 mph 23.0 mph N/A   Partly Cloudy
3:35 PM 80.6 °F - 48.2 °F 32% 30.03 in 10.0 mi North 19.6 mph 26.5 mph N/A   Partly Cloudy
3:55 PM 80.6 °F - 50.0 °F 34% 30.03 in 10.0 mi North 13.8 mph 24.2 mph N/A   Partly Cloudy
4:15 PM 78.8 °F - 48.2 °F 34% 30.03 in 10.0 mi NNW 17.3 mph 24.2 mph N/A   Partly Cloudy
4:35 PM 78.8 °F - 48.2 °F 34% 30.03 in 10.0 mi NNW 16.1 mph 21.9 mph N/A   Clear
4:55 PM 78.8 °F - 48.2 °F 34% 30.03 in 10.0 mi NNW 16.1 mph 23.0 mph N/A   Clear
5:15 PM 77.0 °F - 48.2 °F 36% 30.03 in 10.0 mi NW 18.4 mph 24.2 mph N/A   Partly Cloudy
5:35 PM 75.2 °F - 48.2 °F 38% 30.04 in 10.0 mi NNW 16.1 mph 21.9 mph N/A   Partly Cloudy
5:55 PM 75.2 °F - 48.2 °F 38% 30.04 in 10.0 mi NNW 16.1 mph 19.6 mph N/A   Scattered Clouds
6:15 PM 75.2 °F - 46.4 °F 36% 30.05 in 10.0 mi North 12.7 mph 24.2 mph N/A   Clear
6:35 PM 73.4 °F - 46.4 °F 38% 30.05 in 10.0 mi North 15.0 mph 20.7 mph N/A   Clear
6:55 PM 71.6 °F - 46.4 °F 41% 30.06 in 10.0 mi North 12.7 mph - N/A   Clear
7:15 PM 69.8 °F - 46.4 °F 43% 30.06 in 10.0 mi North 6.9 mph - N/A   Clear
7:35 PM 68.0 °F - 46.4 °F 46% 30.07 in 10.0 mi North 6.9 mph - N/A   Clear
7:55 PM 68.0 °F - 46.4 °F 46% 30.08 in 10.0 mi North 10.4 mph - N/A   Clear
8:15 PM 66.2 °F - 46.4 °F 49% 30.08 in 10.0 mi North 10.4 mph - N/A   Clear
8:35 PM 66.2 °F - 48.2 °F 52% 30.09 in 10.0 mi North 9.2 mph - N/A   Clear
8:55 PM 64.4 °F - 48.2 °F 56% 30.10 in 10.0 mi North 8.1 mph - N/A   Clear
9:15 PM 62.6 °F - 48.2 °F 59% 30.10 in 10.0 mi North 6.9 mph - N/A   Clear
9:35 PM 62.6 °F - 46.4 °F 55% 30.10 in 10.0 mi North 6.9 mph - N/A   Clear
9:55 PM 62.6 °F - 46.4 °F 55% 30.10 in 10.0 mi North 4.6 mph - N/A   Clear
10:15 PM 60.8 °F - 46.4 °F 59% 30.10 in 10.0 mi North 8.1 mph - N/A   Clear
10:35 PM 60.8 °F - 46.4 °F 59% 30.11 in 10.0 mi North 5.8 mph - N/A   Clear
10:55 PM 60.8 °F - 46.4 °F 59% 30.11 in 10.0 mi North 6.9 mph - N/A   Clear
11:15 PM 60.8 °F - 46.4 °F 59% 30.11 in 10.0 mi North 5.8 mph - N/A   Clear
11:35 PM 60.8 °F - 46.4 °F 59% 30.12 in 10.0 mi North 6.9 mph - N/A   Clear
11:55 PM 60.8 °F - 46.4 °F 59% 30.12 in 10.0 mi North 8.1 mph - N/A   Clear